FW1398 Weather Reports


time (UTC)temp
C
wind
direction
speed
KPH
gust
KPH
rain 1hr
cm
rain 24hr
cm
rain mn
cm
humidity
%
barometer
mb
20260507154129 27 303 3.2 6.4 0.00 0.00 0.00 20 1013.0
20260507153628 27 321 3.2 6.4 0.00 0.00 0.00 21 1013.0
20260507153129 27 319 1.6 6.4 0.00 0.00 0.00 21 1012.9
20260507152629 27 3 3.2 8.0 0.00 0.00 0.00 22 1013.0
20260507152130 26 305 6.4 9.7 0.00 0.00 0.00 23 1013.0
20260507151630 26 0 4.8 9.7 0.00 0.00 0.00 24 1012.9
20260507151130 26 350 6.4 8.0 0.00 0.00 0.00 25 1013.0
20260507150630 25 350 4.8 8.0 0.00 0.00 0.00 26 1013.0
20260507150129 25 306 3.2 6.4 0.00 0.00 0.00 28 1013.1
20260507145630 24 207 3.2 4.8 0.00 0.00 0.00 28 1013.1
20260507145130 24 331 1.6 4.8 0.00 0.00 0.00 28 1013.1
20260507144629 23 0 3.2 4.8 0.00 0.00 0.00 28 1013.2
20260507144130 23 319 1.6 6.4 0.00 0.00 0.00 28 1013.1
20260507143629 23 319 1.6 6.4 0.00 0.00 0.00 29 1013.1
20260507143131 23 38 1.6 4.8 0.00 0.00 0.00 29 1013.2
20260507142629 23 69 0.0 3.2 0.00 0.00 0.00 30 1013.2
20260507142130 22 331 0.0 3.2 0.00 0.00 0.00 31 1013.1
20260507141629 22 41 0.0 1.6 0.00 0.00 0.00 31 1013.0
20260507141128 22 27 0.0 3.2 0.00 0.00 0.00 31 1013.1
20260507140629 21 17 0.0 3.2 0.00 0.00 0.00 32 1013.0
20260507140129 21 331 0.0 4.8 0.00 0.00 0.00 32 1013.0
20260507135628 21 330 1.6 4.8 0.00 0.00 0.00 32 1012.9
20260507135129 20 41 1.6 4.8 0.00 0.00 0.00 34 1012.9
20260507134629 20 62 1.6 4.8 0.00 0.00 0.00 35 1012.9
20260507134129 20 48 1.6 4.8 0.00 0.00 0.00 35 1012.8
20260507133629 20 34 1.6 4.8 0.00 0.00 0.00 36 1012.8
20260507133128 19 52 3.2 4.8 0.00 0.00 0.00 36 1012.8
20260507132629 19 62 0.0 6.4 0.00 0.00 0.00 36 1012.8
20260507132129 19 62 3.2 6.4 0.00 0.00 0.00 36 1012.7
20260507131629 18 73 3.2 6.4 0.00 0.00 0.00 36 1012.6
20260507131128 18 86 0.0 4.8 0.00 0.00 0.00 36 1012.6
20260507130629 18 103 3.2 4.8 0.00 0.00 0.00 36 1012.6
20260507130130 18 32 0.0 3.2 0.00 0.00 0.00 36 1012.6
20260507125629 18 7 1.6 3.2 0.00 0.00 0.00 36 1012.5
20260507125129 18 16 0.0 4.8 0.00 0.00 0.00 36 1012.5
20260507124629 18 17 1.6 4.8 0.00 0.00 0.00 37 1012.3
20260507124128 17 17 3.2 4.8 0.00 0.00 0.00 38 1012.4
20260507123628 17 17 1.6 4.8 0.00 0.00 0.00 38 1012.4
20260507123128 17 51 3.2 4.8 0.00 0.00 0.00 40 1012.3
20260507122629 17 71 0.0 3.2 0.00 0.00 0.00 40 1012.3
20260507122131 17 18 0.0 3.2 0.00 0.00 0.00 39 1012.4
20260507121629 18 21 0.0 3.2 0.00 0.00 0.00 39 1012.4
20260507121129 17 21 1.6 3.2 0.00 0.00 0.00 39 1012.4
20260507120629 18 0 0.0 3.2 0.00 0.00 0.00 38 1012.4
20260507120129 17 0 1.6 3.2 0.00 0.00 0.00 39 1012.3
20260507115628 17 336 0.0 4.8 0.00 0.00 0.00 38 1012.3
20260507115129 17 330 3.2 6.4 0.00 0.00 0.00 38 1012.5
20260507114629 17 3 3.2 6.4 0.00 0.00 0.00 39 1012.5
20260507114128 17 340 3.2 4.8 0.00 0.00 0.00 39 1012.6
20260507113628 17 341 3.2 4.8 0.00 0.00 0.00 38 1012.5
20260507113128 17 336 1.6 6.4 0.00 0.00 0.00 38 1012.6
20260507112629 17 329 3.2 6.4 0.00 0.00 0.00 39 1012.7
20260507112129 17 330 3.2 4.8 0.00 0.00 0.00 40 1012.7
20260507111628 17 341 0.0 4.8 0.00 0.00 0.00 39 1012.7
20260507111129 17 316 1.6 4.8 0.00 0.00 0.00 39 1012.7
20260507110629 18 330 3.2 3.2 0.00 0.00 0.00 38 1012.7
20260507110129 18 355 0.0 1.6 0.00 0.00 0.00 38 1012.8
20260507105628 18 355 0.0 3.2 0.00 0.00 0.00 37 1012.8
20260507105128 18 355 0.0 4.8 0.00 0.00 0.00 37 1012.9
20260507104629 18 337 1.6 4.8 0.00 0.00 0.00 37 1012.9
20260507104128 18 355 3.2 4.8 0.00 0.00 0.00 37 1012.8
20260507103629 18 355 0.0 3.2 0.00 0.00 0.00 37 1012.9
20260507103129 18 0 1.6 4.8 0.00 0.00 0.00 37 1013.0
20260507102628 18 354 1.6 4.8 0.00 0.00 0.00 37 1013.0
20260507102129 18 18 1.6 4.8 0.00 0.00 0.00 37 1013.1
20260507101629 18 358 1.6 4.8 0.00 0.00 0.00 37 1013.1
20260507101128 18 0 3.2 6.4 0.00 0.00 0.00 38 1013.1
20260507100629 18 344 3.2 6.4 0.00 0.00 0.00 37 1013.1
20260507100128 18 344 3.2 4.8 0.00 0.00 0.00 37 1013.1
20260507095629 18 345 1.6 4.8 0.00 0.00 0.00 37 1013.1
20260507095130 19 0 0.0 1.6 0.00 0.00 0.00 37 1013.1
20260507094629 19 0 0.0 3.2 0.00 0.00 0.00 36 1013.0
20260507094129 19 37 0.0 6.4 0.00 0.00 0.00 36 1013.0
20260507093629 19 37 3.2 6.4 0.00 0.00 0.00 36 1013.1
20260507093129 19 30 1.6 3.2 0.00 0.00 0.00 35 1013.0
20260507092629 19 58 0.0 3.2 0.00 0.00 0.00 36 1013.1
20260507092128 19 58 1.6 4.8 0.00 0.00 0.00 38 1013.1
20260507091630 20 58 3.2 4.8 0.00 0.00 0.00 37 1013.0
20260507091128 19 32 0.0 4.8 0.00 0.00 0.00 37 1013.0
20260507090629 19 32 1.6 3.2 0.00 0.00 0.00 38 1013.1
20260507090129 19 32 1.6 3.2 0.00 0.00 0.00 39 1013.1
20260507085629 19 32 0.0 1.6 0.00 0.00 0.00 38 1013.1
20260507085129 19 32 0.0 0.0 0.00 0.00 0.00 38 1013.1
20260507084629 19 32 0.0 0.0 0.00 0.00 0.00 37 1013.2
20260507084129 19 32 0.0 0.0 0.00 0.00 0.00 37 1013.1
20260507083628 19 32 0.0 0.0 0.00 0.00 0.00 37 1013.2
20260507083130 20 32 0.0 1.6 0.00 0.00 0.00 35 1013.2
20260507082628 20 75 0.0 1.6 0.00 0.00 0.00 34 1013.3
20260507082129 20 75 0.0 3.2 0.00 0.00 0.00 34 1013.3
20260507081628 20 75 3.2 3.2 0.00 0.00 0.00 34 1013.4
20260507081129 20 75 0.0 1.6 0.00 0.00 0.00 34 1013.4
20260507080629 20 0 0.0 1.6 0.00 0.00 0.00 36 1013.4
20260507080128 20 344 0.0 1.6 0.00 0.00 0.00 35 1013.4
20260507075629 20 344 0.0 1.6 0.00 0.00 0.00 33 1013.4
20260507075129 20 338 0.0 1.6 0.00 0.00 0.00 32 1013.4
20260507074629 20 338 1.6 1.6 0.00 0.00 0.00 32 1013.4
20260507074129 21 338 0.0 3.2 0.00 0.00 0.00 31 1013.4
20260507073629 21 338 1.6 3.2 0.00 0.00 0.00 31 1013.6
20260507073129 21 333 0.0 3.2 0.00 0.00 0.00 29 1013.6
20260507072628 22 290 0.0 3.2 0.00 0.00 0.00 28 1013.4
20260507072129 22 258 0.0 4.8 0.00 0.00 0.00 28 1013.4
20260507071628 22 224 1.6 4.8 0.00 0.00 0.00 28 1013.3
20260507071129 22 212 3.2 4.8 0.00 0.00 0.00 28 1013.3
20260507070629 22 212 0.0 3.2 0.00 0.00 0.00 29 1013.3
20260507070128 22 206 1.6 4.8 0.00 0.00 0.00 30 1013.3
20260507065629 22 176 0.0 4.8 0.00 0.00 0.00 28 1013.4
20260507065129 22 195 0.0 3.2 0.00 0.00 0.00 29 1013.3
20260507064628 22 195 1.6 3.2 0.00 0.00 0.00 28 1013.3
20260507064128 22 217 0.0 3.2 0.00 0.00 0.00 28 1013.3
20260507063629 22 227 1.6 3.2 0.00 0.00 0.00 28 1013.3
20260507063128 22 192 0.0 3.2 0.00 0.00 0.00 28 1013.3
20260507062629 22 175 0.0 4.8 0.00 0.00 0.00 29 1013.3
20260507062129 23 180 1.6 4.8 0.00 0.00 0.00 27 1013.3
20260507061629 23 199 3.2 4.8 0.00 0.00 0.00 27 1013.3
20260507061129 23 188 1.6 3.2 0.00 0.00 0.00 27 1013.3
20260507060629 23 203 0.0 3.2 0.00 0.00 0.00 27 1013.3
20260507060129 23 212 1.6 4.8 0.00 0.00 0.00 27 1013.3
20260507055630 23 231 1.6 4.8 0.00 0.00 0.00 28 1013.3
20260507055128 23 226 3.2 4.8 0.00 0.00 0.00 28 1013.3
20260507054629 23 219 3.2 4.8 0.00 0.00 0.00 28 1013.3
20260507054129 23 223 3.2 4.8 0.00 0.00 0.00 27 1013.4
20260507053629 23 202 3.2 4.8 0.00 0.00 0.00 28 1013.4
20260507053129 23 223 1.6 3.2 0.00 0.00 0.00 28 1013.4
20260507052628 23 221 0.0 3.2 0.00 0.00 0.00 27 1013.6
20260507052128 23 234 0.0 4.8 0.00 0.00 0.00 28 1013.4
20260507051628 23 234 1.6 4.8 0.00 0.00 0.00 27 1013.3
20260507051130 24 221 3.2 4.8 0.00 0.00 0.00 26 1013.3
20260507050629 24 212 3.2 4.8 0.00 0.00 0.00 26 1013.3
20260507050129 24 183 3.2 4.8 0.00 0.00 0.00 26 1013.3
20260507045628 24 189 3.2 4.8 0.00 0.00 0.00 26 1013.3
20260507045128 24 195 1.6 4.8 0.00 0.00 0.00 27 1013.2
20260507044629 23 195 0.0 3.2 0.00 0.00 0.00 28 1013.2
20260507044129 23 195 1.6 3.2 0.00 0.00 0.00 27 1013.1
20260507043629 24 190 0.0 3.2 0.00 0.00 0.00 30 1013.0
20260507043129 24 190 0.0 4.8 0.00 0.00 0.00 29 1013.1
20260507042629 25 190 3.2 4.8 0.00 0.00 0.00 26 1013.0
20260507042129 25 180 0.0 6.4 0.00 0.00 0.00 25 1013.0
20260507041628 25 190 3.2 6.4 0.00 0.00 0.00 25 1012.9
20260507041128 25 199 1.6 4.8 0.00 0.00 0.00 25 1012.9
20260507040629 25 199 1.6 6.4 0.00 0.00 0.00 24 1012.8
20260507040129 25 172 3.2 6.4 0.00 0.00 0.00 25 1012.8
20260507035629 25 165 1.6 3.2 0.00 0.00 0.00 25 1012.7
20260507035128 25 165 1.6 6.4 0.00 0.00 0.00 27 1012.6
20260507034629 25 172 3.2 6.4 0.00 0.00 0.00 24 1012.5
20260507034129 25 190 1.6 4.8 0.00 0.00 0.00 24 1012.5
20260507033629 25 186 1.6 3.2 0.00 0.00 0.00 24 1012.4
20260507033129 25 203 0.0 3.2 0.00 0.00 0.00 24 1012.3
20260507032630 25 203 1.6 3.2 0.00 0.00 0.00 25 1012.2
20260507032129 26 203 0.0 3.2 0.00 0.00 0.00 24 1012.1
20260507031628 26 203 1.6 6.4 0.00 0.00 0.00 23 1012.1
20260507031129 26 227 1.6 6.4 0.00 0.00 0.00 23 1012.0
20260507030629 26 209 3.2 8.0 0.00 0.00 0.00 23 1012.0
20260507030129 26 186 3.2 8.0 0.00 0.00 0.00 23 1011.9
20260507025629 26 210 4.8 8.0 0.00 0.00 0.00 22 1011.8
20260507025128 26 227 4.8 9.7 0.00 0.00 0.00 22 1011.7
20260507024630 26 200 3.2 11.3 0.00 0.00 0.00 22 1011.7
20260507024128 27 241 3.2 14.5 0.00 0.00 0.00 22 1011.7
20260507023629 27 188 6.4 14.5 0.00 0.00 0.00 22 1011.7
20260507023129 27 196 3.2 11.3 0.00 0.00 0.00 22 1011.7
20260507022628 27 227 3.2 11.3 0.00 0.00 0.00 22 1011.6
20260507022129 27 192 6.4 11.3 0.00 0.00 0.00 22 1011.7
20260507021629 27 197 4.8 14.5 0.00 0.00 0.00 22 1011.6
20260507021128 27 231 6.4 14.5 0.00 0.00 0.00 22 1011.6
20260507020629 27 179 8.0 11.3 0.00 0.00 0.00 22 1011.5
20260507020130 27 183 8.0 16.1 0.00 0.00 0.00 22 1011.5
20260507015628 27 176 8.0 16.1 0.00 0.00 0.00 21 1011.6
20260507015128 27 159 6.4 11.3 0.00 0.00 0.00 21 1011.4
20260507014630 27 176 6.4 11.3 0.00 0.00 0.00 21 1011.4
20260507014129 28 182 6.4 11.3 0.00 0.00 0.00 21 1011.4
20260507013628 28 157 6.4 11.3 0.00 0.00 0.00 21 1011.4
20260507013129 28 131 6.4 14.5 0.00 0.00 0.00 21 1011.4
20260507012629 28 125 6.4 16.1 0.00 0.00 0.00 21 1011.4
20260507012129 28 204 11.3 16.1 0.00 0.00 0.00 21 1011.4
20260507011629 28 171 9.7 16.1 0.00 0.00 0.00 21 1011.3
20260507011129 28 172 8.0 14.5 0.00 0.00 0.00 21 1011.3
20260507010629 28 233 6.4 14.5 0.00 0.00 0.00 21 1011.3
20260507010129 28 254 6.4 14.5 0.00 0.00 0.00 21 1011.4
20260507005630 28 259 6.4 14.5 0.00 0.00 0.00 21 1011.3
20260507005130 28 266 6.4 11.3 0.00 0.00 0.00 21 1011.4
20260507004630 28 245 6.4 9.7 0.00 0.00 0.00 21 1011.4
20260507004130 28 286 6.4 11.3 0.00 0.00 0.00 20 1011.3
20260507003628 28 226 8.0 14.5 0.00 0.00 0.00 20 1011.3
20260507003129 28 210 9.7 17.7 0.00 0.00 0.00 20 1011.3
20260507002629 28 250 9.7 17.7 0.00 0.00 0.00 21 1011.3
20260507002129 29 207 4.8 14.5 0.00 0.00 0.00 21 1011.3
20260507001629 28 168 8.0 11.3 0.00 0.00 0.00 21 1011.3
20260507001128 28 216 9.7 16.1 0.00 0.00 0.00 20 1011.3
20260507000628 28 124 6.4 16.1 0.00 0.00 0.00 20 1011.3
20260507000128 29 234 8.0 14.5 0.00 0.00 0.00 21 1011.3
20260506235629 28 93 1.6 16.1 0.00 0.00 0.00 21 1011.3
20260506235129 28 116 3.2 17.7 0.00 0.00 0.00 20 1011.3
20260506234629 28 285 12.9 17.7 0.00 0.00 0.00 21 1011.3
20260506234128 28 214 3.2 11.3 0.00 0.00 0.00 21 1011.3
20260506233629 28 214 3.2 11.3 0.00 0.00 0.00 22 1011.4
20260506233129 28 134 8.0 11.3 0.00 0.00 0.00 21 1011.5
20260506232629 28 223 4.8 17.7 0.00 0.00 0.00 21 1011.6
20260506232129 29 200 9.7 17.7 0.00 0.00 0.00 21 1011.7
20260506231629 29 173 1.6 6.4 0.00 0.00 0.00 21 1011.7
20260506231129 29 347 4.8 14.5 0.00 0.00 0.00 23 1011.7
20260506230628 29 292 9.7 14.5 0.00 0.00 0.00 20 1011.8
20260506230129 29 255 6.4 27.4 0.00 0.00 0.00 21 1011.8
20260506225628 30 286 17.7 27.4 0.00 0.00 0.00 20 1011.9
20260506225128 28 220 1.6 9.7 0.00 0.00 0.00 20 1011.8
20260506224628 28 247 1.6 11.3 0.00 0.00 0.00 21 1011.9
20260506224128 28 227 6.4 16.1 0.00 0.00 0.00 22 1011.9
20260506223629 28 288 4.8 16.1 0.00 0.00 0.00 21 1012.0
20260506223129 29 223 8.0 16.1 0.00 0.00 0.00 20 1012.1
20260506222628 28 235 6.4 17.7 0.00 0.00 0.00 22 1012.0
20260506222128 28 237 8.0 17.7 0.00 0.00 0.00 21 1012.2
20260506221629 28 255 8.0 16.1 0.00 0.00 0.00 22 1012.2
20260506221129 28 250 3.2 9.7 0.00 0.00 0.00 22 1012.3
20260506220629 28 285 3.2 14.5 0.00 0.00 0.00 22 1012.2
20260506220129 28 127 6.4 14.5 0.00 0.00 0.00 22 1012.4
20260506215629 28 199 4.8 20.9 0.00 0.00 0.00 22 1012.5
20260506215128 28 259 9.7 20.9 0.00 0.00 0.00 22 1012.6
20260506214629 27 224 3.2 16.1 0.00 0.00 0.00 21 1012.7
20260506214129 28 237 8.0 14.5 0.00 0.00 0.00 22 1012.8
20260506213629 28 264 4.8 11.3 0.00 0.00 0.00 21 1012.9
20260506213129 28 244 6.4 11.3 0.00 0.00 0.00 22 1012.9
20260506212629 28 155 6.4 17.7 0.00 0.00 0.00 22 1013.0
20260506212128 27 168 6.4 19.3 0.00 0.00 0.00 22 1013.1
20260506211630 28 196 12.9 19.3 0.00 0.00 0.00 22 1013.2
20260506211130 28 169 1.6 14.5 0.00 0.00 0.00 21 1013.2
20260506210629 28 296 3.2 9.7 0.00 0.00 0.00 22 1013.2
20260506210130 27 230 3.2 6.4 0.00 0.00 0.00 24 1013.4
20260506205630 27 103 0.0 9.7 0.00 0.00 0.00 22 1013.6
20260506205130 27 274 3.2 14.5 0.00 0.00 0.00 22 1013.8
20260506204630 27 190 6.4 14.5 0.00 0.00 0.00 22 1013.8
20260506204130 27 0 3.2 17.7 0.00 0.00 0.00 22 1013.8
20260506203629 27 305 6.4 17.7 0.00 0.00 0.00 21 1013.9
20260506203129 27 282 3.2 14.5 0.00 0.00 0.00 22 1013.9
20260506202629 27 245 4.8 14.5 0.00 0.00 0.00 21 1014.0
20260506202129 26 268 3.2 19.3 0.00 0.00 0.00 23 1014.0
20260506201629 27 264 4.8 19.3 0.00 0.00 0.00 23 1014.1
20260506201129 27 264 3.2 17.7 0.00 0.00 0.00 23 1014.1
20260506200629 27 296 1.6 19.3 0.00 0.00 0.00 24 1014.1
20260506200129 27 212 8.0 19.3 0.00 0.00 0.00 23 1014.2
20260506195633 27 266 6.4 17.7 0.00 0.00 0.00 23 1014.2
20260506195132 27 244 8.0 14.5 0.00 0.00 0.00 23 1014.3
20260506194630 26 224 4.8 14.5 0.00 0.00 0.00 24 1014.3
20260506194128 27 217 6.4 14.5 0.00 0.00 0.00 23 1014.4
20260506193628 26 244 3.2 11.3 0.00 0.00 0.00 23 1014.5
20260506193128 26 214 6.4 16.1 0.00 0.00 0.00 26 1014.6
20260506192628 26 221 8.0 16.1 0.00 0.00 0.00 25 1014.4
20260506192128 26 207 6.4 16.1 0.00 0.00 0.00 25 1014.5
20260506191629 26 157 6.4 14.5 0.00 0.00 0.00 25 1014.5
20260506191128 25 238 3.2 17.7 0.00 0.00 0.00 26 1014.6
20260506190628 26 252 9.7 17.7 0.00 0.00 0.00 25 1014.7
20260506190128 26 314 6.4 17.7 0.00 0.00 0.00 24 1014.7
20260506185627 26 275 11.3 17.7 0.00 0.00 0.00 23 1014.7
20260506185127 26 255 6.4 14.5 0.00 0.00 0.00 26 1014.8
20260506184627 25 320 1.6 14.5 0.00 0.00 0.00 26 1014.8
20260506184127 25 141 6.4 9.7 0.00 0.00 0.00 26 1014.9
20260506183627 25 142 3.2 11.3 0.00 0.00 0.00 29 1014.9
20260506183126 25 158 6.4 11.3 0.00 0.00 0.00 26 1015.1
20260506182625 25 216 8.0 14.5 0.00 0.00 0.00 27 1015.2
20260506182126 25 224 6.4 17.7 0.00 0.00 0.00 27 1015.2
20260506181625 25 193 9.7 17.7 0.00 0.00 0.00 27 1015.2
20260506181126 25 259 8.0 16.1 0.00 0.00 0.00 27 1015.3
20260506180623 25 261 3.2 11.3 0.00 0.00 0.00 30 1015.3
20260506180123 25 262 4.8 11.3 0.00 0.00 0.00 29 1015.3
20260506175624 24 224 8.0 16.1 0.00 0.00 0.00 29 1015.4
20260506175123 24 196 4.8 16.1 0.00 0.00 0.00 29 1015.5
20260506174623 24 173 3.2 8.0 0.00 0.00 0.00 30 1015.4
20260506174123 24 161 3.2 8.0 0.00 0.00 0.00 29 1015.4
20260506173623 23 200 3.2 11.3 0.00 0.00 0.00 31 1015.5
20260506173122 23 144 8.0 11.3 0.00 0.00 0.00 30 1015.5
20260506172622 23 161 3.2 11.3 0.00 0.00 0.00 30 1015.4
20260506172123 23 295 3.2 14.5 0.00 0.00 0.00 31 1015.5
20260506171623 23 204 4.8 14.5 0.00 0.00 0.00 32 1015.5
20260506171123 23 140 4.8 11.3 0.00 0.00 0.00 31 1015.6
20260506170622 23 243 8.0 11.3 0.00 0.00 0.00 31 1015.5
20260506170122 23 289 6.4 14.5 0.00 0.00 0.00 31 1015.4
20260506165624 23 123 3.2 14.5 0.00 0.00 0.00 32 1015.4
20260506165124 23 244 6.4 14.5 0.00 0.00 0.00 32 1015.4
20260506164623 22 151 3.2 14.5 0.00 0.00 0.00 32 1015.4
20260506164122 22 155 3.2 11.3 0.00 0.00 0.00 33 1015.4
20260506163622 22 152 6.4 9.7 0.00 0.00 0.00 34 1015.3
20260506163122 21 261 1.6 9.7 0.00 0.00 0.00 35 1015.4
20260506162623 22 202 1.6 11.3 0.00 0.00 0.00 34 1015.4
20260506162123 22 212 6.4 11.3 0.00 0.00 0.00 34 1015.3
20260506161622 21 185 3.2 11.3 0.00 0.00 0.00 36 1015.3
20260506161123 21 188 4.8 11.3 0.00 0.00 0.00 35 1015.2
20260506160622 21 114 1.6 4.8 0.00 0.00 0.00 35 1015.3
20260506160123 21 111 0.0 6.4 0.00 0.00 0.00 35 1015.2
20260506155623 21 111 4.8 6.4 0.00 0.00 0.00 35 1015.2
20260506155123 20 111 0.0 6.4 0.00 0.00 0.00 36 1015.2
20260506154623 20 320 3.2 6.4 0.00 0.00 0.00 37 1015.2